Location: Aranbee
(34.0885°N, 118.2342°W)
Time: 03:28:53
(UTC+00:00)

Courier 1B Rocket - Pass Details

Date: 05 December 2020
Orbit: 920 x 1202 km, 28.2° (Epoch: 16 January)

Event Time Altitude Azimuth Distance (km) Brightness Sun altitude
Exits shadow 12:23:55 46° 221° (SW) 1,551 5.7 -28.4°
Maximum altitude 12:25:49 56° 177° (S) 1,389 5.7 -28.0°
Drops below altitude 10° 12:33:27 10° 101° (E) 3,128 8.7 -26.4°
Sets 12:36:21 0° 97° (E) 4,083 9.6 -25.9°
